This is the latest recevied weather packets stored in our database for station/object KE4AMH. If no packets are shown the sender has not sent any weather packets the latest 10 day(s).
| Time | Temp. | Humidity | Pressure | Rain* | Wind** | Luminosity | Snow |
|---|---|---|---|---|---|---|---|
| 1777410986 | 17.78° C | 89% | 1018.6 hPa | 0 mm | - | 114 W/m² | - |
| 1777410680 | 17.22° C | 89% | 1018.9 hPa | 0 mm | - | 121 W/m² | - |
| 1777410376 | 17.78° C | 89% | 1018.9 hPa | 0 mm | - | 119 W/m² | - |
| 1777410074 | 17.22° C | 88% | 1018.9 hPa | 0 mm | - | 103 W/m² | - |
| 1777409769 | 17.78° C | 89% | 1018.9 hPa | 0 mm | - | 84 W/m² | - |
| 1777409465 | 17.22° C | 89% | 1019 hPa | 0 mm | - | 110 W/m² | - |
| 1777409161 | 17.78° C | 89% | 1019.1 hPa | 0 mm | - | 127 W/m² | - |
| 1777408858 | 17.78° C | 89% | 1019 hPa | 0 mm | - | 119 W/m² | - |
| 1777408554 | 17.78° C | 87% | 1019.1 hPa | 0 mm | - | 135 W/m² | - |
| 1777408254 | 17.78° C | 90% | 1019.1 hPa | 0 mm | - | 209 W/m² | - |
| 1777407949 | 17.22° C | 89% | 1019.5 hPa | 0 mm | - | 147 W/m² | - |
| 1777407647 | 17.22° C | 89% | 1019.6 hPa | 0 mm | - | 76 W/m² | - |
| 1777407346 | 17.22° C | 90% | 1019.5 hPa | 0 mm | - | 84 W/m² | - |
| 1777407041 | 17.22° C | 89% | 1019.6 hPa | 0 mm | - | 77 W/m² | - |
| 1777406737 | 17.22° C | 89% | 1019.3 hPa | 0 mm | - | 76 W/m² | - |
| 1777406432 | 17.78° C | 87% | 1019.4 hPa | 0 mm | - | 109 W/m² | - |
| 1777406132 | 17.22° C | 87% | 1019.5 hPa | 0 mm | - | 114 W/m² | - |
| 1777405828 | 17.22° C | 88% | 1019.7 hPa | 0 mm | - | 158 W/m² | - |
| 1777405524 | 17.22° C | 88% | 1019.6 hPa | 0 mm | - | 163 W/m² | - |
| 1777405222 | 17.22° C | 89% | 1019.8 hPa | 0 mm | - | 122 W/m² | - |
| 1777404920 | 17.78° C | 89% | 1019.9 hPa | 0 mm | - | 95 W/m² | - |
| 1777404616 | 17.22° C | 87% | 1019.9 hPa | 0 mm | - | 111 W/m² | - |
| 1777404313 | 17.22° C | 88% | 1020 hPa | 0 mm | - | 150 W/m² | - |
| 1777404010 | 17.22° C | 89% | 1020 hPa | 0 mm | - | 86 W/m² | - |
| 1777403704 | 17.22° C | 89% | 1020.2 hPa | 0 mm | - | 164 W/m² | - |
* Rain latest hour (hover to see other rain measurements)
** Current wind speed in m/s (hover to see current wind gust speed)